DW6345 Murcia ES current weather conditions

sailwx.info

Wind from 272 at 6 knots gusting 13

Air temperature 21.7° C
Dewpoint 6.3° C

Last reported at 2015-Mar-30 08:45 UTC.
Time now 2015-Mar-30 09:23 UTC

Location: N 37°60' W 001°06'.
View on Google Maps.

See reports from other nearby stations

  
Tides and Currents Weather Stations Pressure Air Temp Water Temp Dewpoint Dewpoint Depression Visibility Wind Speed Wind Dir Waves Ship Positions
date/time (UTC)wind fromknots sea level pressurealtimeterstation pressurevisibilityair tempwater tempwave heightnotes
2015-Mar-30 08:45 272 6 gusting 13 21.7
2015-Mar-30 08:35 315 7 gusting 13 21.7
2015-Mar-30 08:25 315 3 gusting 8 21.1
2015-Mar-30 08:15 315 3 gusting 6 20.6
2015-Mar-30 08:05 315 4 gusting 6 20.0
2015-Mar-30 07:55 315 3 gusting 6 19.4
2015-Mar-30 07:45 315 1 gusting 2 19.4
2015-Mar-30 07:35 046 0 gusting 2 18.9
2015-Mar-30 07:25 315 0 gusting 4 18.9
2015-Mar-30 07:15 315 1 gusting 5 18.9
2015-Mar-30 07:05 270 2 gusting 7 18.9
2015-Mar-30 06:55 270 5 gusting 7 18.3
2015-Mar-30 06:45 270 4 gusting 6 17.8
2015-Mar-30 06:35 267 4 gusting 6 17.8
2015-Mar-30 06:25 311 4 gusting 6 17.8
2015-Mar-30 06:15 270 4 gusting 5 17.2
2015-Mar-30 06:05 315 0 gusting 2 17.2
2015-Mar-30 05:55 315 1 gusting 4 17.8
2015-Mar-30 05:45 272 1 gusting 4 18.3
2015-Mar-30 05:35 270 1 gusting 5 18.3
2015-Mar-30 05:25 270 2 gusting 5 18.3
2015-Mar-30 05:15 270 2 gusting 5 18.3
2015-Mar-30 05:05 315 1 gusting 6 18.9
2015-Mar-30 04:55 311 3 gusting 6 18.9
2015-Mar-30 04:45 270 2 gusting 4 18.3
2015-Mar-30 04:35 225 1 gusting 2 18.3
2015-Mar-30 04:25 270 1 gusting 2 18.3
2015-Mar-30 04:15 315 1 gusting 2 18.3
2015-Mar-30 04:05 270 0 gusting 4 17.8
2015-Mar-30 03:55 275 1 gusting 5 17.8
2015-Mar-30 03:45 315 2 gusting 6 17.8
2015-Mar-30 03:35 270 2 gusting 5 18.3
2015-Mar-30 03:25 315 2 gusting 5 19.4
2015-Mar-30 03:15 270 3 gusting 5 20.6
2015-Mar-30 03:05 270 2 gusting 6 20.6
2015-Mar-30 02:55 313 3 gusting 7 20.6
2015-Mar-30 02:45 270 5 gusting 7 20.6
2015-Mar-30 02:35 270 4 gusting 6 20.6
2015-Mar-30 02:25 273 1 gusting 6 20.6
2015-Mar-30 02:15 270 3 gusting 5 20.6
2015-Mar-30 02:05 270 3 gusting 5 20.6
2015-Mar-30 01:55 270 2 gusting 6 20.6
2015-Mar-30 01:45 270 1 gusting 5 20.0
2015-Mar-30 01:35 270 2 gusting 6 20.0
2015-Mar-30 01:25 270 2 gusting 6 20.0
2015-Mar-30 01:15 270 3 gusting 6 20.0
2015-Mar-30 01:05 270 2 gusting 7 20.0
2015-Mar-30 00:55 270 0 gusting 6 20.0
2015-Mar-30 00:45 270 2 gusting 6 18.9
2015-Mar-30 00:35 225 2 gusting 6 18.3
2015-Mar-30 00:25 225 4 gusting 5 18.3
2015-Mar-30 00:15 177 2 gusting 6 19.4
2015-Mar-30 00:05 270 4 gusting 6 19.4
2015-Mar-29 23:55 270 2 gusting 5 19.4
2015-Mar-29 23:45 270 2 gusting 5 18.9
2015-Mar-29 23:35 225 2 gusting 5 18.9
2015-Mar-29 23:25 180 2 gusting 6 19.4
2015-Mar-29 23:15 270 2 gusting 6 18.9
2015-Mar-29 23:05 270 4 gusting 6 17.8
2015-Mar-29 22:55 267 2 gusting 6 17.8
2015-Mar-29 22:45 225 2 gusting 4 17.2
2015-Mar-29 22:35 180 2 gusting 5 17.8
2015-Mar-29 22:25 135 1 gusting 2 18.3
2015-Mar-29 22:15 181 18.3
2015-Mar-29 22:05 292 2 gusting 5 17.8
2015-Mar-29 21:55 270 1 gusting 2 17.8
2015-Mar-29 21:45 094 0 gusting 2 17.8
2015-Mar-29 21:35 228 17.8
2015-Mar-29 21:25 270 0 gusting 1 18.3
2015-Mar-29 21:15 265 18.3
2015-Mar-29 21:05 180 0 gusting 4 18.3
2015-Mar-29 20:55 315 1 gusting 5 18.3
2015-Mar-29 20:45 273 1 gusting 4 18.3
2015-Mar-29 20:35 225 2 gusting 5 18.3
2015-Mar-29 20:25 180 2 gusting 4 18.3
2015-Mar-29 20:15 180 0 gusting 2 18.3
2015-Mar-29 20:05 045 0 gusting 2 18.3
2015-Mar-29 19:55 315 0 gusting 1 18.3
2015-Mar-29 19:45 135 0 gusting 1 18.3
2015-Mar-29 19:35 180 0 gusting 2 18.3
2015-Mar-29 19:25 315 1 gusting 2 18.3
2015-Mar-29 19:15 180 18.9
2015-Mar-29 19:05 045 0 gusting 2 18.9
2015-Mar-29 18:55 080 1 gusting 6 18.9
2015-Mar-29 18:45 045 2 gusting 8 19.4
2015-Mar-29 18:35 131 5 gusting 10 19.4
2015-Mar-29 18:25 133 5 gusting 8 20.0
2015-Mar-29 18:15 045 1 gusting 10 20.6
2015-Mar-29 18:05 047 5 gusting 10 21.1
2015-Mar-29 17:55 086 6 gusting 13 21.1
2015-Mar-29 17:45 093 7 gusting 11 21.7
2015-Mar-29 17:35 090 5 gusting 11 21.7
2015-Mar-29 17:25 048 4 gusting 10 22.2
2015-Mar-29 17:15 133 5 gusting 10 22.2
2015-Mar-29 17:05 045 5 gusting 11 22.2
2015-Mar-29 16:55 087 6 gusting 13 22.2
2015-Mar-29 16:45 090 9 gusting 13 22.8
2015-Mar-29 16:35 090 6 gusting 14 22.8
2015-Mar-29 16:25 132 9 gusting 15 22.8
2015-Mar-29 16:15 113 8 gusting 14 23.3
2015-Mar-29 16:05 070 7 gusting 15 23.3
2015-Mar-29 15:55 132 9 gusting 17 23.9
2015-Mar-29 15:45 090 8 gusting 13 24.4
2015-Mar-29 15:35 090 6 gusting 14 25.0
2015-Mar-29 15:25 090 8 gusting 15 25.0
2015-Mar-29 15:15 090 7 gusting 13 25.6
2015-Mar-29 15:05 315 8 gusting 13 26.1
2015-Mar-29 14:55 090 7 gusting 14 26.7
2015-Mar-29 14:45 090 7 gusting 13 27.2
2015-Mar-29 14:35 090 6 gusting 15 27.8
2015-Mar-29 14:25 137 6 gusting 15 28.9
2015-Mar-29 14:05 045 5 gusting 13 28.9
2015-Mar-29 13:55 270 2 gusting 14 28.9
2015-Mar-29 13:35 315 11 gusting 17 28.3
2015-Mar-29 13:15 040 11 gusting 17 28.3
2015-Mar-29 13:05 292 7 gusting 17 28.3
2015-Mar-29 12:55 338 8 gusting 14 28.3
2015-Mar-29 12:45 315 7 gusting 14 28.3
2015-Mar-29 12:35 275 4 gusting 17 27.8
2015-Mar-29 12:25 039 8 gusting 18 27.8
2015-Mar-29 12:15 276 10 gusting 20 27.8
2015-Mar-29 12:05 043 7 gusting 14 27.8
2015-Mar-29 11:55 315 7 gusting 15 27.8
2015-Mar-29 11:45 045 10 gusting 19 27.2
2015-Mar-29 11:35 315 7 gusting 14 27.2
2015-Mar-29 11:25 275 7 gusting 19 26.7
2015-Mar-29 11:15 276 8 gusting 14 26.7
2015-Mar-29 11:05 270 11 gusting 14 26.1
2015-Mar-29 10:55 086 6 gusting 13 26.1
2015-Mar-29 10:45 315 10 gusting 14 26.1
2015-Mar-29 10:35 307 6 gusting 14 25.6
2015-Mar-29 10:25 270 7 gusting 19 25.6
2015-Mar-29 10:15 270 10 gusting 19 25.0
2015-Mar-29 10:05 315 6 gusting 15 24.4
2015-Mar-29 09:55 270 7 gusting 14 24.4
2015-Mar-29 09:45 310 4 gusting 13 24.4
2015-Mar-29 09:35 313 5 gusting 13 23.9
2015-Mar-29 09:25 315 7 gusting 13 23.9
2015-Mar-29 09:15 270 3 gusting 8 23.3
2015-Mar-29 09:05 270 0 gusting 8 22.8
2015-Mar-29 08:55 313 2 gusting 6 22.2
2015-Mar-29 08:45 270 4 gusting 7 22.2
2015-Mar-29 08:35 270 4 gusting 11 21.7
2015-Mar-29 08:25 270 4 gusting 11 21.7
2015-Mar-29 08:15 230 4 gusting 7 21.1
2015-Mar-29 08:05 315 4 gusting 11 21.1
2015-Mar-29 07:55 315 3 gusting 8 21.1
2015-Mar-29 07:45 270 5 gusting 11 20.6
2015-Mar-29 07:35 315 5 gusting 12 20.6
2015-Mar-29 07:25 272 3 gusting 12 20.0
2015-Mar-29 07:15 315 5 gusting 10 18.9
2015-Mar-29 07:05 311 5 gusting 10 18.3
2015-Mar-29 06:55 312 5 gusting 7 17.8
2015-Mar-29 06:45 312 3 gusting 8 17.2
2015-Mar-29 06:35 312 5 gusting 7 17.2
2015-Mar-29 06:25 270 5 gusting 7 16.7
2015-Mar-29 06:15 227 5 gusting 8 17.8
2015-Mar-29 06:05 315 4 gusting 8 19.4
2015-Mar-29 05:55 270 4 gusting 11 19.4
2015-Mar-29 05:45 315 6 gusting 13 19.4
2015-Mar-29 05:35 273 8 gusting 18 18.3
2015-Mar-29 05:25 315 3 gusting 7 16.1
2015-Mar-29 05:15 225 2 gusting 4 15.6
2015-Mar-29 05:05 270 2 gusting 4 15.0
2015-Mar-29 04:55 248 2 gusting 5 15.0
2015-Mar-29 04:45 180 0 gusting 4 15.0
2015-Mar-29 04:35 181 0 gusting 2 15.6
2015-Mar-29 04:25 225 2 gusting 5 15.6
2015-Mar-29 04:15 270 2 gusting 6 16.1
2015-Mar-29 04:05 315 4 gusting 6 16.7
2015-Mar-29 03:55 270 2 gusting 6 16.7
2015-Mar-29 03:45 268 3 gusting 6 17.2
2015-Mar-29 03:35 270 3 gusting 6 16.1
2015-Mar-29 03:25 270 3 gusting 6 16.1
2015-Mar-29 03:15 225 1 gusting 6 16.1
2015-Mar-29 03:05 248 0 gusting 2 16.1
2015-Mar-29 02:55 269 1 gusting 4 16.1
2015-Mar-29 02:45 269 1 gusting 4 16.1
2015-Mar-29 02:35 270 0 gusting 2 16.1
2015-Mar-29 02:25 275 0 gusting 4 15.6
2015-Mar-29 02:15 273 2 gusting 5 15.6
2015-Mar-29 02:05 270 1 gusting 6 15.6
2015-Mar-29 01:55 270 2 gusting 6 15.6
2015-Mar-29 01:45 270 3 gusting 6 15.0
2015-Mar-29 01:35 223 4 gusting 6 15.0
2015-Mar-29 01:25 227 3 gusting 6 15.0
2015-Mar-29 01:15 202 4 gusting 6 15.6
2015-Mar-29 01:05 225 4 gusting 6 15.6
2015-Mar-29 00:55 180 1 gusting 2 16.1
2015-Mar-29 00:45 132 0 gusting 1 16.7
2015-Mar-29 00:35 249 0 gusting 2 16.7
2015-Mar-29 00:25 185 0 gusting 2 17.2
2015-Mar-29 00:15 180 0 gusting 4 17.2
2015-Mar-29 00:05 270 1 gusting 4 17.2
2015-Mar-28 23:55 312 1 gusting 5 17.2
2015-Mar-28 23:44 270 2 gusting 5 17.2
2015-Mar-28 23:35 270 1 gusting 2 16.7
2015-Mar-28 23:24 315 1 gusting 2 16.7
2015-Mar-28 23:15 315 1 gusting 2 16.7
2015-Mar-28 23:04 315 0 gusting 0 16.7
2015-Mar-28 22:54 270 0 gusting 1 17.2
2015-Mar-28 22:45 048 17.2
2015-Mar-28 22:35 315 0 gusting 2 17.8
2015-Mar-28 22:25 048 0 gusting 0 18.3
2015-Mar-28 22:15 315 0 gusting 2 18.3
2015-Mar-28 22:05 270 0 gusting 2 18.3
2015-Mar-28 21:55 270 0 gusting 4 18.3
2015-Mar-28 21:45 270 2 gusting 5 18.3
2015-Mar-28 21:35 228 1 gusting 6 18.9
2015-Mar-28 21:25 270 2 gusting 6 18.9
2015-Mar-28 21:15 270 3 gusting 11 18.9
2015-Mar-28 21:05 225 5 gusting 6 19.4
2015-Mar-28 20:55 310 4 gusting 7 19.4
2015-Mar-28 20:45 270 2 gusting 6 19.4
2015-Mar-28 20:35 270 2 gusting 6 19.4
2015-Mar-28 20:25 270 4 gusting 6 20.0
2015-Mar-28 20:15 315 2 gusting 7 20.0
2015-Mar-28 20:05 270 5 gusting 11 20.6
2015-Mar-28 19:55 270 4 gusting 7 20.6
2015-Mar-28 19:45 312 2 gusting 11 21.1
2015-Mar-28 19:35 270 5 gusting 8 21.1
2015-Mar-28 19:25 274 4 gusting 7 21.7
2015-Mar-28 19:15 274 2 gusting 7 21.7
2015-Mar-28 19:05 270 2 gusting 5 21.7
2015-Mar-28 18:55 312 0 gusting 5 22.2
2015-Mar-28 18:45 315 0 gusting 4 22.2
2015-Mar-28 18:35 180 2 gusting 5 22.8
2015-Mar-28 18:25 090 0 gusting 4 23.3
2015-Mar-28 18:15 138 1 gusting 6 23.3
2015-Mar-28 18:05 180 4 gusting 6 24.4
2015-Mar-28 17:55 180 2 gusting 6 24.4
2015-Mar-28 17:45 178 2 gusting 6 24.4
2015-Mar-28 17:35 183 4 gusting 8 25.0
2015-Mar-28 17:25 180 5 gusting 11 25.0
2015-Mar-28 17:15 180 6 gusting 13 25.6
2015-Mar-28 17:05 180 4 gusting 11 25.6
2015-Mar-28 16:55 180 4 gusting 10 26.1
2015-Mar-28 16:45 138 5 gusting 10 26.7
2015-Mar-28 16:35 180 6 gusting 8 26.7
2015-Mar-28 16:25 180 4 gusting 8 27.2
2015-Mar-28 16:15 180 6 gusting 8 27.2
2015-Mar-28 16:05 135 6 gusting 7 27.8
2015-Mar-28 15:55 090 4 gusting 8 27.8
2015-Mar-28 15:45 133 3 gusting 8 27.8
2015-Mar-28 15:35 090 4 gusting 8 27.8
2015-Mar-28 15:25 093 4 gusting 8 27.8
2015-Mar-28 15:15 090 3 gusting 8 27.2
2015-Mar-28 15:05 090 6 gusting 10 27.8
2015-Mar-28 14:55 132 6 gusting 10 27.2
2015-Mar-28 14:45 090 6 gusting 13 27.8
2015-Mar-28 14:35 048 7 gusting 13 27.8
2015-Mar-28 14:25 048 4 gusting 11 28.3
2015-Mar-28 14:15 047 4 gusting 8 28.3
2015-Mar-28 14:05 225 28.3
2015-Mar-28 13:55 045 4 gusting 10 28.3
2015-Mar-28 13:45 062 2 gusting 11 27.8
2015-Mar-28 13:35 315 5 gusting 11 27.8
2015-Mar-28 13:25 040 4 gusting 12 27.8
2015-Mar-28 13:15 272 5 gusting 14 27.8
2015-Mar-28 13:05 315 2 gusting 7 27.8
2015-Mar-28 12:55 315 4 gusting 13 27.2
2015-Mar-28 12:45 270 2 gusting 11 27.2
2015-Mar-28 12:35 045 6 gusting 13 26.7
2015-Mar-28 12:25 039 6 gusting 11 26.7
2015-Mar-28 12:15 271 2 gusting 11 26.7
2015-Mar-28 12:05 315 6 gusting 11 26.1
2015-Mar-28 11:55 315 2 gusting 13 26.1
2015-Mar-28 11:45 272 7 gusting 13 26.1
2015-Mar-28 11:35 045 6 gusting 11 26.1
2015-Mar-28 11:25 270 6 gusting 15 25.6
2015-Mar-28 11:15 323 6 gusting 13 25.6
2015-Mar-28 11:05 045 6 gusting 14 25.0
2015-Mar-28 10:55 270 5 gusting 17 25.0
2015-Mar-28 10:45 270 5 gusting 18 24.4
2015-Mar-28 10:35 276 9 gusting 19 24.4
2015-Mar-28 10:25 315 11 gusting 18 24.4
2015-Mar-28 10:15 273 5 gusting 12 23.9
2015-Mar-28 10:05 315 8 gusting 12 23.3
2015-Mar-28 09:55 270 6 gusting 18 23.3
2015-Mar-28 09:45 270 11 gusting 18 22.8
2015-Mar-28 09:35 270 11 gusting 19 22.2
2015-Mar-28 09:25 313 10 gusting 19 22.2
2015-Mar-28 09:15 315 11 gusting 17 22.2
2015-Mar-28 09:05 315 13 gusting 18 21.7